Henderson, NV

7:14 PM PST on December 15, 2017 (GMT -0800)
Henderson

Weather History for KHND - January, 2014

Change the Weather History Date:

Thursday, January 30, 2014

  Actual Average (KLAS) Record (KLAS)
Temperature  
Mean Temperature 58 °F -  
Max Temperature 70 °F 57 °F 74 °F (2016)
Min Temperature 45 °F 35 °F 18 °F (1949)
Degree Days  
Heating Degree Days 8    
Growing Degree Days 8 (Base 50)    
Moisture  
Dew Point 32 °F    
Average Humidity 36    
Maximum Humidity 52    
Minimum Humidity 22    
Precipitation  
Precipitation 0.00 in - - ()
Sea Level Pressure  
Sea Level Pressure 29.69 in    
Wind  
Wind Speed 13 mph (SSW)    
Max Wind Speed 34 mph    
Max Gust Speed 45 mph    
Visibility 10 miles    
Events Rain    
Averages and records for this station are not official NWS values.
T = Trace of Precipitation, MM = Missing Value Source: NWS Daily Summary

Daily Weather History Graph

Daily Weather History Graph

Search for Another Location

Airport or City:

Trip Planner

Search our weather history database for the weather conditions in past years. The results will help you decide how hot, cold, wet, or windy it might be!

Date:

Astronomy

Jan. 30, 2014 Rise Set
Actual Time 6:42 AM PST 5:05 PM PST
Civil Twilight 6:15 AM PST 5:32 PM PST
Nautical Twilight 5:44 AM PST 6:03 PM PST
Astronomical Twilight 5:14 AM PST 6:33 PM PST
Moon 6:13 AM PST (1/30) 5:20 PM PST (1/30)
Length of Visible Light 11h 17m
Length of Day
10h 23m
Waning Crescent, 0% of the Moon is Illuminated
Jan 30
Waning Crescent
Jan 30
New
Feb 6
First Quarter
Feb 14
Full
Feb 22
Last Quarter

Hourly Weather History & Observations

Time (PST) Temp. Dew Point Humidity Pressure Visibility Wind Dir Wind Speed Gust Speed Precip Events Conditions
12:56 AM 46.9 °F 26.1 °F 44% 29.82 in 10.0 mi Calm Calm - 0.00 in Rain Light Rain
1:56 AM 46.9 °F 26.1 °F 44% 29.80 in 10.0 mi South 6.9 mph - 0.00 in Rain Heavy Rain
2:56 AM 45.9 °F 25.2 °F 44% 29.78 in 10.0 mi Calm Calm - 0.00 in Rain Heavy Rain
3:56 AM 46.9 °F 25.2 °F 43% 29.76 in 10.0 mi South 4.6 mph - 0.00 in Rain Heavy Rain
4:56 AM 46.9 °F 25.2 °F 43% 29.74 in 10.0 mi Calm Calm - 0.00 in Rain Heavy Rain
5:56 AM 52.9 °F 25.2 °F 34% 29.72 in 10.0 mi Calm Calm - 0.00 in   Clear
6:31 AM 60.8 °F 28.4 °F 29% 29.71 in 10.0 mi SSW 20.7 mph - N/A   Clear
6:56 AM 61.9 °F 30.0 °F 30% 29.69 in 10.0 mi SSW 18.4 mph - N/A   Clear
7:56 AM 64.9 °F 31.1 °F 28% 29.69 in 10.0 mi SSW 21.9 mph 34.5 mph N/A   Clear
8:56 AM 66.9 °F 31.1 °F 26% 29.69 in 10.0 mi SSW 31.1 mph 38.0 mph N/A   Clear
9:56 AM 68.9 °F 31.1 °F 25% 29.68 in 10.0 mi SSW 34.5 mph 44.9 mph N/A   Clear
10:56 AM 70.9 °F 30.0 °F 22% 29.70 in 10.0 mi SSW 26.5 mph 34.5 mph 0.00 in   Clear
11:56 AM 70.0 °F 30.0 °F 23% 29.68 in 10.0 mi SSW 20.7 mph 32.2 mph N/A   Scattered Clouds
12:56 PM 68.9 °F 32.0 °F 25% 29.65 in 10.0 mi SSW 23.0 mph 27.6 mph 0.00 in   Partly Cloudy
1:56 PM 68.0 °F 34.0 °F 28% 29.62 in 6.0 mi SW 31.1 mph 34.5 mph N/A   Haze
2:56 PM 68.0 °F 34.0 °F 28% 29.62 in 4.0 mi SW 33.4 mph 39.1 mph N/A   Haze
3:56 PM 66.9 °F 36.0 °F 32% 29.61 in 10.0 mi SSW 27.6 mph 38.0 mph N/A   Clear
4:56 PM 63.9 °F 36.0 °F 36% 29.62 in 10.0 mi SSW 28.8 mph 35.7 mph N/A   Clear
5:56 PM 61.9 °F 36.0 °F 38% 29.65 in 10.0 mi SW 18.4 mph - N/A   Clear
6:56 PM 59.9 °F 36.0 °F 41% 29.64 in 10.0 mi SW 20.7 mph - N/A   Clear
7:56 PM 59.0 °F 36.0 °F 42% 29.65 in 10.0 mi SW 23.0 mph - N/A   Clear
8:56 PM 55.9 °F 36.9 °F 49% 29.68 in 10.0 mi SSW 18.4 mph - N/A   Clear
9:56 PM 54.9 °F 36.0 °F 49% 29.68 in 10.0 mi SSW 18.4 mph - N/A   Clear
10:56 PM 54.0 °F 36.9 °F 52% 29.69 in 10.0 mi SW 13.8 mph - N/A   Clear
11:56 PM 54.0 °F 36.9 °F 52% 29.69 in 10.0 mi SSW 19.6 mph 25.3 mph N/A   Partly Cloudy